[[{"header":{"parameterUnit":"m.s-1","parameterCategory":1,"la1":30.2992,"la2":30.254,"lo1":-89.0895,"lo2":-89.0443,"dy":0.0025,"dx":0.0025,"nx":19,"ny":19,"refTime":"2026-05-08T09:00:00:Z","depth":0,"parameterNumber":2,"parameterNumberName":"U-component_of_WINDS"},"data":[0,0,0,-1.9175,-1.9171,-1.8938,-1.8937,-1.8697,-1.8695,0,0,0,0,0,0,0,0,0,0,0,-1.9277,-1.9277,-1.9175,-1.917,-1.8939,-1.8937,-1.8697,-1.8695,0,0,0,0,0,0,0,0,0,0,0,-1.9277,-1.9277,-1.9276,-1.9169,-1.8939,-1.8937,-1.8697,-1.8852,0,0,0,0,0,0,0,0,0,0,-1.9068,-1.9196,-1.9277,-1.9276,-1.9168,-1.8939,-1.8937,-1.8859,-1.8843,-1.8825,0,-1.8819,0,-1.8754,-1.8682,-1.8682,0,0,0,-1.9145,-1.921,-1.9116,-1.9276,-1.9167,-1.894,-1.9036,-1.8849,-1.8831,-1.8804,-1.8815,-1.8805,-1.875,-1.8681,-1.868,-1.8666,-1.8668,0,0,-1.9158,-1.9254,-1.9129,-1.9106,-1.9145,-1.9044,-1.9029,-1.8837,-1.8855,-1.8814,-1.8798,-1.8746,-1.868,-1.8678,-1.8665,-1.8667,0,0,0,-1.9212,-1.9264,-1.9174,-1.9118,-1.9072,-1.9038,-1.9021,-1.8864,-1.8826,-1.8795,-1.8743,-1.8679,-1.8676,-1.8664,-1.8666,-1.8817,0,0,0,-1.9218,-1.9295,-1.9181,-1.9238,-1.9076,-1.8965,-1.9053,-1.884,-1.8815,-1.8744,-1.8679,-1.8675,-1.8662,-1.8665,-1.881,-1.8874,0,0,0,-1.9281,-1.9302,-1.928,-1.9243,-1.9147,-1.8966,-1.8916,-1.8832,-1.8785,-1.8682,-1.8674,-1.8661,-1.8664,-1.8804,-1.8863,-1.8901,0,0,0,-1.9376,-1.9416,-1.9284,-1.9309,-1.915,-1.906,-1.8916,-1.8845,-1.8774,-1.8678,-1.8663,-1.8666,-1.8802,-1.8856,-1.8895,-1.8953,-1.8985,0,0,-1.9481,-1.9433,-1.9439,-1.9314,-1.9274,-1.9088,-1.9068,-1.8912,-1.8813,-1.8721,-1.8719,-1.8812,-1.8862,-1.8899,-1.9125,-1.9152,0,0,0,-1.9506,-1.9513,-1.948,-1.9418,-1.93,-1.9204,-1.9041,-1.8982,-1.8899,-1.8786,-1.8831,-1.8857,-1.8875,-1.8899,-1.8921,-1.8932,-1.8679,-1.8679,-1.8679,-1.9796,-1.9667,-1.9671,-1.9516,-1.9457,-1.9288,-1.9228,-1.9121,-1.9008,-1.9021,-1.8995,-1.9147,-1.9178,-1.9194,-1.9207,-1.9011,-1.9012,-1.9012,-1.9012,-1.9941,-1.9933,-1.9781,-1.9731,-1.9596,-1.9552,-1.939,-1.9312,-1.9252,-1.9156,-1.9165,-1.9076,-1.9227,-1.9232,-1.9022,-1.9021,-1.9019,-1.9019,-1.9018,-2.0121,-2.0095,-2.0023,-1.992,-1.9854,-1.9693,-1.9644,-1.952,-1.9403,-1.9412,-1.9372,-1.937,-1.9355,-1.9401,-1.9401,-1.9402,-1.9402,-1.9403,-1.9403,-2.0338,-2.0251,-2.0225,-2.0103,-2.0047,-1.9957,-1.9786,-1.9727,-1.9631,-1.9545,-1.9544,-1.9434,-1.9264,-1.9227,-1.9411,-1.9409,-1.9408,-1.9408,-1.9407,-2.0542,-2.0475,-2.0436,-2.038,-2.0226,-2.0171,-2.0011,-1.9903,-1.9836,-1.9816,-1.97,-1.9594,-1.9536,-1.9517,-1.9486,-1.9726,-1.9726,-1.9726,-1.9726,-2.0697,-2.0654,-2.0586,-2.0505,-2.0411,-2.0263,-2.0223,-2.009,-1.9942,-1.9893,-1.9839,-1.9785,-1.9771,-1.9722,-1.9698,-1.9668,-1.9948,-1.9948,-1.9948,-2.0817,-2.0759,-2.075,-2.0604,-2.0474,-2.0366,-2.0325,-2.0238,-2.0055,-1.9955,-1.9853,-1.9844,-1.9755,-1.9732,-1.9635,-1.9602,-1.9542,0,0]},{"header":{"parameterUnit":"m.s-1","parameterCategory":1,"la1":30.2992,"la2":30.254,"lo1":-89.0895,"lo2":-89.0443,"dy":0.0025,"dx":0.0025,"nx":19,"ny":19,"refTime":"2026-05-08T09:00:00:Z","depth":0,"parameterNumber":3,"parameterNumberName":"V-component_of_WINDS"},"data":[0,0,0,-6.292,-6.292,-6.2883,-6.2882,-6.2881,-6.2882,0,0,0,0,0,0,0,0,0,0,0,-6.2962,-6.2963,-6.292,-6.292,-6.2883,-6.2882,-6.2881,-6.2882,0,0,0,0,0,0,0,0,0,0,0,-6.2961,-6.2963,-6.2964,-6.292,-6.2883,-6.2882,-6.2881,-6.2892,0,0,0,0,0,0,0,0,0,0,-6.292,-6.2989,-6.2962,-6.2964,-6.292,-6.2883,-6.2882,-6.2892,-6.2891,-6.2919,0,-6.2954,0,-6.2918,-6.2885,-6.2885,0,0,0,-6.2896,-6.299,-6.2952,-6.2964,-6.292,-6.2883,-6.2893,-6.2891,-6.2891,-6.2919,-6.2953,-6.2952,-6.2918,-6.2885,-6.2885,-6.3124,-6.3127,0,0,-6.2898,-6.2972,-6.2953,-6.2954,-6.2965,-6.2894,-6.2892,-6.289,-6.2932,-6.2953,-6.2951,-6.2918,-6.2885,-6.2886,-6.3122,-6.3125,0,0,0,-6.292,-6.2974,-6.2935,-6.2955,-6.2945,-6.2894,-6.2891,-6.2932,-6.2913,-6.295,-6.2918,-6.2886,-6.2886,-6.312,-6.3123,-6.3302,0,0,0,-6.292,-6.2986,-6.2937,-6.2982,-6.2946,-6.2939,-6.2934,-6.2913,-6.2911,-6.2918,-6.2886,-6.2887,-6.3117,-6.3122,-6.3292,-6.3374,0,0,0,-6.2954,-6.299,-6.2995,-6.2986,-6.2972,-6.2937,-6.2917,-6.2911,-6.2892,-6.2885,-6.2887,-6.3116,-6.3121,-6.3283,-6.3359,-6.3455,0,0,0,-6.301,-6.3157,-6.3,-6.3151,-6.2973,-6.305,-6.2916,-6.2969,-6.2985,-6.2886,-6.3118,-6.3123,-6.328,-6.3349,-6.3446,-6.3548,-6.3598,0,0,-6.3236,-6.3187,-6.327,-6.3128,-6.325,-6.3049,-6.3196,-6.3141,-6.3074,-6.3111,-6.3115,-6.3295,-6.3358,-6.3453,-6.3859,-6.39,0,0,0,-6.3366,-6.3426,-6.3442,-6.3461,-6.3423,-6.3395,-6.3309,-6.3288,-6.3315,-6.3109,-6.3356,-6.339,-6.3443,-6.3488,-6.3523,-6.3561,-6.3148,-6.3147,-6.3147,-6.379,-6.3694,-6.3823,-6.3723,-6.3743,-6.3651,-6.3656,-6.3611,-6.3511,-6.3571,-6.3581,-6.3839,-6.3895,-6.392,-6.3961,-6.3629,-6.363,-6.363,-6.3631,-6.4109,-6.4177,-6.4038,-6.4113,-6.401,-6.4071,-6.3988,-6.3914,-6.3953,-6.3825,-6.3866,-6.3732,-6.3967,-6.3998,-6.3643,-6.3641,-6.364,-6.3638,-6.3638,-6.4373,-6.4388,-6.4361,-6.4374,-6.4395,-6.4287,-6.4331,-6.4236,-6.4148,-6.4189,-6.4186,-6.4182,-6.4164,-6.4195,-6.4196,-6.4197,-6.4198,-6.4198,-6.4199,-6.4657,-6.4619,-6.4668,-6.4638,-6.4635,-6.4619,-6.4527,-6.452,-6.4488,-6.4415,-6.4414,-6.4305,-6.401,-6.3935,-6.4212,-6.421,-6.4208,-6.4207,-6.4206,-6.501,-6.4914,-6.4991,-6.4988,-6.4941,-6.4966,-6.4845,-6.4838,-6.4819,-6.4842,-6.4724,-6.4522,-6.4464,-6.4436,-6.4374,-6.4747,-6.4747,-6.4747,-6.4747,-6.523,-6.5192,-6.5246,-6.5247,-6.5237,-6.5134,-6.5218,-6.5146,-6.5057,-6.5038,-6.497,-6.488,-6.4856,-6.4812,-6.4776,-6.4716,-6.5168,-6.5168,-6.5168,-6.544,-6.5396,-6.5487,-6.54,-6.5356,-6.5319,-6.5394,-6.5397,-6.5275,-6.5183,-6.5019,-6.5002,-6.4855,-6.4813,-6.4717,-6.4663,-6.455,0,0]}]]